[[{"header":{"parameterUnit":"m.s-1","parameterCategory":1,"la1":30.2991,"la2":30.254,"lo1":-89.0895,"lo2":-89.0444,"dy":0.0017,"dx":0.0017,"nx":28,"ny":28,"refTime":"2025-07-28T21:00:00:Z","depth":0,"parameterNumber":2,"parameterNumberName":"U-component_of_WINDS"},"data":[0,0,0,0,0,0,0,0,0,0,0,0,0,0,0,0,0,0,0,0,0,0,0,0,0,0,0,0,0,0,0,0,0,0,0,0,0,0,0,0,0,0,0,0,0,0,0,0,0,0,0,0,0,0,0,0,0,0,-0.1484,-0.1485,0,-0.1561,-0.1562,-0.1563,-0.1635,-0.1636,-0.1637,-0.1637,-0.1711,-0.1712,-0.1714,0,0,0,0,0,0,0,0,0,0,0,0,0,-0.1393,-0.1394,-0.1484,-0.1485,-0.1486,-0.1561,-0.1562,-0.1563,-0.1635,-0.1636,-0.1637,-0.1638,-0.1711,-0.1712,-0.1714,0,0,0,0,0,0,0,0,0,0,0,0,0,-0.1447,-0.1394,-0.1484,-0.1531,-0.1536,-0.1561,-0.1562,-0.1563,-0.1634,-0.1636,-0.1637,-0.1638,-0.1711,-0.1712,-0.1714,-0.1697,0,0,-0.1719,-0.172,0,0,0,0,0,0,0,0,-0.1444,-0.145,-0.1523,-0.1528,-0.1533,-0.159,-0.1557,-0.1608,-0.1634,-0.1597,-0.1637,-0.1639,-0.1669,-0.1675,-0.1686,-0.17,-0.1704,-0.1719,-0.172,-0.1721,-0.1721,0,0,0,0,0,0,0,-0.144,-0.1447,-0.1514,-0.1524,-0.153,-0.1546,-0.1555,-0.1567,-0.1624,-0.16,-0.1606,-0.1614,-0.1673,-0.1684,-0.1688,-0.1705,-0.1719,-0.1721,-0.1722,-0.1722,-0.1706,-0.1704,0,0,0,0,0,0,-0.143,-0.1444,-0.1512,-0.1517,-0.1491,-0.1546,-0.1557,-0.157,-0.1625,-0.1634,-0.1613,-0.1617,-0.1681,-0.1686,-0.1691,-0.1673,-0.1721,-0.1722,-0.1723,-0.1707,-0.1706,-0.1704,0,0,0,0,0,0,-0.1428,-0.1435,-0.1509,-0.1482,-0.1492,-0.1547,-0.1561,-0.1571,-0.1583,-0.1634,-0.1644,-0.1614,-0.1682,-0.1689,-0.1695,-0.1676,-0.1723,-0.1725,-0.1709,-0.1707,-0.1705,-0.1637,0,0,0,0,0,0,-0.1425,-0.1434,-0.143,-0.1481,-0.1494,-0.1513,-0.156,-0.1572,-0.1586,-0.1592,-0.1638,-0.1647,-0.1683,-0.1692,-0.1696,-0.168,-0.1726,-0.1711,-0.1708,-0.1705,-0.1641,-0.1633,-0.1626,0,0,0,0,0,-0.1421,-0.1407,-0.1429,-0.1437,-0.149,-0.1512,-0.1519,-0.1562,-0.1584,-0.1579,-0.1612,-0.1646,-0.1678,-0.1692,-0.1697,-0.1681,-0.1712,-0.1709,-0.1706,-0.1645,-0.1635,-0.1626,0,0,0,0,0,0,-0.1351,-0.1415,-0.144,-0.1443,-0.1471,-0.1524,-0.1519,-0.155,-0.1572,-0.1577,-0.1628,-0.1638,-0.1637,-0.166,-0.1674,-0.1666,-0.1699,-0.1697,-0.1651,-0.1642,-0.1634,-0.1628,-0.1727,0,0,0,0,0,-0.1336,-0.1351,-0.1405,-0.1402,-0.1415,-0.1464,-0.1476,-0.1507,-0.1538,-0.155,-0.1583,-0.161,-0.1626,-0.1636,-0.1653,-0.1645,-0.1654,-0.1636,-0.1629,-0.1622,-0.1619,-0.1613,-0.1605,-0.1693,-0.1693,-0.1693,0,0,-0.1305,-0.1342,-0.1348,-0.1389,-0.1415,-0.1426,-0.1474,-0.1485,-0.1493,-0.1551,-0.1558,-0.1583,-0.1617,-0.1615,-0.1616,-0.1634,-0.1597,-0.1618,-0.1612,-0.1613,-0.1609,-0.1601,-0.1593,-0.1691,-0.1691,-0.1692,0,0,-0.1255,-0.1285,-0.1285,-0.1309,-0.1348,-0.1381,-0.138,-0.1428,-0.1447,-0.1455,-0.1498,-0.1507,-0.1535,-0.1556,-0.1571,-0.1525,-0.1556,-0.1529,-0.1489,-0.1483,-0.1476,-0.147,-0.1451,-0.1444,-0.1527,-0.1526,-0.1526,0,-0.1211,-0.1232,-0.128,-0.1288,-0.1303,-0.1357,-0.1355,-0.1377,-0.1418,-0.1426,-0.1447,-0.148,-0.1507,-0.1509,-0.1498,-0.1509,-0.1508,-0.1524,-0.1473,-0.1468,-0.1463,-0.1445,-0.1439,-0.1523,-0.1523,-0.1524,-0.1524,0,-0.1174,-0.1188,-0.1182,-0.1222,-0.1237,-0.124,-0.1287,-0.1296,-0.1325,-0.1354,-0.136,-0.1394,-0.1418,-0.1421,-0.145,-0.1427,-0.1436,-0.1464,-0.1499,-0.145,-0.1434,-0.1428,-0.1518,-0.1519,-0.152,-0.1521,0,0,-0.1082,-0.1148,-0.1145,-0.1162,-0.1208,-0.1218,-0.1222,-0.1247,-0.1252,-0.1279,-0.1282,-0.1303,-0.1328,-0.1344,-0.1375,-0.137,-0.1328,-0.1398,-0.1399,-0.1382,-0.1302,-0.1279,-0.1271,-0.135,-0.1349,-0.1348,-0.1298,0,-0.1037,-0.1049,-0.1092,-0.109,-0.1101,-0.1152,-0.1155,-0.1182,-0.1209,-0.122,-0.125,-0.1263,-0.1297,-0.1306,-0.1304,-0.1334,-0.1313,-0.1338,-0.135,-0.135,-0.1338,-0.1264,-0.124,-0.1192,-0.1293,-0.1292,-0.1291,0,-0.0987,-0.101,-0.101,-0.1053,-0.1059,-0.1061,-0.1086,-0.1098,-0.1128,-0.1148,-0.1165,-0.12,-0.1204,-0.1237,-0.1242,-0.1258,-0.1265,-0.128,-0.1279,-0.1281,-0.1316,-0.1261,-0.1178,-0.117,-0.1283,-0.1283,-0.1284,0,-0.0916,-0.0948,-0.0951,-0.0965,-0.1016,-0.1016,-0.1037,-0.1069,-0.108,-0.1101,-0.1108,-0.1129,-0.114,-0.1154,-0.1192,-0.1213,-0.1191,-0.1228,-0.1206,-0.1204,-0.1198,-0.1197,-0.1113,-0.1205,-0.1205,-0.1206,-0.1206,0,-0.086,-0.0857,-0.092,-0.0921,-0.0919,-0.0967,-0.0962,-0.0987,-0.1015,-0.102,-0.1065,-0.1069,-0.112,-0.1129,-0.1159,-0.1156,-0.1161,-0.1175,-0.1183,-0.117,-0.1168,-0.1175,-0.1178,-0.1204,-0.1204,-0.1204,-0.1205,0,-0.0781,-0.0823,-0.0829,-0.0877,-0.0889,-0.0884,-0.0924,-0.0926,-0.0956,-0.0962,-0.0966,-0.1012,-0.1024,-0.1064,-0.1086,-0.1106,-0.1094,-0.111,-0.1084,-0.1088,-0.1062,-0.1063,-0.0978,-0.0967,-0.1068,-0.1067,-0.1066,0,-0.0741,-0.074,-0.0788,-0.0795,-0.0815,-0.0827,-0.0838,-0.0885,-0.0895,-0.0928,-0.0925,-0.0942,-0.0957,-0.0974,-0.1008,-0.1024,-0.104,-0.1009,-0.1042,-0.1029,-0.1036,-0.1035,-0.1034,-0.1,-0.0999,-0.0998,-0.0997,0,-0.0666,-0.0687,-0.0703,-0.0726,-0.0739,-0.0759,-0.0781,-0.0784,-0.0836,-0.0844,-0.0858,-0.087,-0.0893,-0.0907,-0.0929,-0.0948,-0.0979,-0.0987,-0.0982,-0.0968,-0.0952,-0.0957,-0.1061,-0.0988,-0.0989,-0.099,-0.099,-0.099,-0.0604,-0.0605,-0.0638,-0.0653,-0.0675,-0.0694,-0.0698,-0.0728,-0.0741,-0.0764,-0.079,-0.08,-0.0828,-0.086,-0.0877,-0.0884,-0.0901,-0.0895,-0.0893,-0.089,-0.0883,-0.0952,-0.0888,-0.0889,-0.0889,-0.0889,-0.0889,0,-0.0529,-0.0553,-0.0567,-0.0597,-0.0608,-0.064,-0.0665,-0.0672,-0.0681,-0.0705,-0.0719,-0.0733,-0.0747,-0.0782,-0.0798,-0.0797,-0.0811,-0.0799,-0.0798,-0.0802,-0.0868,-0.0869,-0.0787,-0.0787,-0.0787,-0.0787,-0.0787,-0.0787,-0.0492,-0.0493,-0.0517,-0.0528,-0.0552,-0.0563,-0.0574,-0.0591,-0.0611,-0.0625,-0.0637,-0.066,-0.0687,-0.0706,-0.0719,-0.0729,-0.0731,-0.0714,-0.0727,-0.0788,-0.0798,-0.0807,-0.0808,-0.0714,-0.0714,-0.0661,-0.066,-0.066]},{"header":{"parameterUnit":"m.s-1","parameterCategory":1,"la1":30.2991,"la2":30.254,"lo1":-89.0895,"lo2":-89.0444,"dy":0.0017,"dx":0.0017,"nx":28,"ny":28,"refTime":"2025-07-28T21:00:00:Z","depth":0,"parameterNumber":3,"parameterNumberName":"V-component_of_WINDS"},"data":[0,0,0,0,0,0,0,0,0,0,0,0,0,0,0,0,0,0,0,0,0,0,0,0,0,0,0,0,0,0,0,0,0,0,0,0,0,0,0,0,0,0,0,0,0,0,0,0,0,0,0,0,0,0,0,0,0,0,3.2388,3.2389,0,3.245,3.245,3.2451,3.2475,3.2475,3.2475,3.2474,3.2531,3.2533,3.2535,0,0,0,0,0,0,0,0,0,0,0,0,0,3.229,3.2291,3.2388,3.2389,3.239,3.2449,3.245,3.2451,3.2475,3.2475,3.2475,3.2474,3.2531,3.2533,3.2535,0,0,0,0,0,0,0,0,0,0,0,0,0,3.234,3.2292,3.2388,3.2409,3.2412,3.2449,3.245,3.2451,3.2475,3.2475,3.2475,3.2474,3.253,3.2533,3.2535,3.2555,0,0,3.2543,3.2544,0,0,0,0,0,0,0,0,3.2337,3.2343,3.2405,3.2408,3.2411,3.2455,3.2436,3.2486,3.2475,3.2451,3.2474,3.2474,3.2506,3.251,3.2522,3.2558,3.256,3.2543,3.2544,3.2546,3.2546,0,0,0,0,0,0,0,3.2333,3.2341,3.2412,3.2406,3.2409,3.2415,3.2421,3.2446,3.2478,3.2453,3.2455,3.2462,3.2507,3.2519,3.2523,3.2561,3.2543,3.2545,3.2547,3.2548,3.2619,3.2619,0,0,0,0,0,0,3.2327,3.2338,3.241,3.2414,3.2373,3.2417,3.2424,3.244,3.2478,3.2484,3.2462,3.2463,3.2515,3.252,3.2526,3.2553,3.2545,3.2548,3.2549,3.2618,3.2619,3.2619,0,0,0,0,0,0,3.2325,3.2333,3.2408,3.2377,3.2387,3.2419,3.2437,3.2442,3.2454,3.2485,3.2491,3.2469,3.2515,3.2522,3.2548,3.2555,3.2549,3.2551,3.2618,3.2618,3.2619,3.2606,0,0,0,0,0,0,3.2322,3.2332,3.234,3.2377,3.2388,3.243,3.2437,3.2443,3.2459,3.2461,3.2493,3.2498,3.2516,3.2545,3.2551,3.2558,3.2553,3.2617,3.2618,3.2619,3.2606,3.2606,3.2606,0,0,0,0,0,3.2318,3.2332,3.234,3.2349,3.2399,3.2431,3.2437,3.2458,3.246,3.2468,3.2489,3.2497,3.2554,3.2547,3.2554,3.2562,3.2617,3.2618,3.2619,3.2606,3.2606,3.2606,0,0,0,0,0,0,3.2292,3.2337,3.2347,3.2373,3.2399,3.2435,3.2445,3.2457,3.2481,3.2481,3.2505,3.2512,3.2537,3.2552,3.2544,3.2585,3.2586,3.2588,3.2574,3.2574,3.2574,3.2569,3.2555,0,0,0,0,0,3.229,3.2314,3.2351,3.2371,3.2383,3.2413,3.2427,3.2442,3.2468,3.2478,3.25,3.2524,3.2547,3.2562,3.2584,3.2609,3.2617,3.2618,3.2618,3.2618,3.2619,3.2635,3.2637,3.2622,3.2622,3.2622,0,0,3.2285,3.2313,3.2325,3.2367,3.2388,3.2411,3.2421,3.2444,3.2461,3.2481,3.2508,3.2525,3.2554,3.258,3.2592,3.2593,3.2626,3.2619,3.2619,3.262,3.2636,3.2638,3.2639,3.2623,3.2622,3.2622,0,0,3.2287,3.2311,3.2331,3.2353,3.2387,3.2407,3.2412,3.2447,3.2461,3.2489,3.2505,3.2526,3.2565,3.2585,3.26,3.2616,3.2625,3.2622,3.2622,3.2637,3.2638,3.2639,3.2645,3.2647,3.2624,3.2624,3.2624,0,3.2276,3.2313,3.2339,3.2363,3.2381,3.2404,3.2424,3.2444,3.2482,3.2494,3.2495,3.2548,3.2568,3.26,3.2604,3.2616,3.2622,3.2618,3.2636,3.2638,3.2639,3.2645,3.2647,3.2623,3.2623,3.2623,3.2623,0,3.2298,3.2323,3.2335,3.2375,3.2395,3.2417,3.2446,3.2463,3.2477,3.2497,3.2527,3.2553,3.2583,3.2592,3.2604,3.2626,3.2626,3.2632,3.2633,3.264,3.2646,3.2648,3.2623,3.2623,3.2623,3.2623,0,0,3.2281,3.2339,3.2343,3.2363,3.2404,3.2423,3.2447,3.2479,3.2493,3.252,3.254,3.2576,3.2582,3.26,3.2616,3.2629,3.2641,3.2633,3.2634,3.2634,3.2668,3.2663,3.2665,3.2649,3.2649,3.2649,3.2665,0,3.2288,3.2334,3.2361,3.2394,3.2419,3.2443,3.2464,3.2491,3.2512,3.2535,3.2557,3.2581,3.2588,3.2599,3.2614,3.2636,3.2648,3.2636,3.2667,3.2667,3.2658,3.2668,3.2662,3.2675,3.2668,3.2668,3.2669,0,3.2302,3.2332,3.237,3.2411,3.2422,3.2441,3.2474,3.2496,3.2528,3.2542,3.2564,3.2581,3.2607,3.2608,3.2645,3.2636,3.265,3.2664,3.2665,3.2667,3.2667,3.267,3.268,3.2682,3.2672,3.2672,3.2672,0,3.2287,3.2336,3.2366,3.2382,3.2431,3.2444,3.2464,3.2497,3.2515,3.2544,3.2556,3.2587,3.2603,3.2626,3.2651,3.2649,3.2685,3.2688,3.2697,3.2696,3.2701,3.27,3.2713,3.2712,3.2712,3.2712,3.2712,0,3.2291,3.2313,3.236,3.2378,3.2404,3.2435,3.246,3.2482,3.2511,3.2534,3.2556,3.2576,3.2608,3.2633,3.2652,3.268,3.2687,3.2698,3.2703,3.2696,3.2694,3.2704,3.2704,3.2713,3.2713,3.2713,3.2712,0,3.2277,3.2309,3.2344,3.2389,3.2401,3.2418,3.2457,3.2475,3.2499,3.2527,3.2535,3.2571,3.2602,3.263,3.2668,3.2682,3.271,3.2716,3.2699,3.2702,3.2709,3.2708,3.2728,3.2732,3.2729,3.2729,3.2729,0,3.2277,3.2295,3.2344,3.2363,3.2384,3.2412,3.2433,3.2465,3.2485,3.2526,3.2539,3.2572,3.26,3.2647,3.2675,3.2706,3.2713,3.2718,3.2717,3.271,3.2713,3.2711,3.2713,3.2717,3.2717,3.2717,3.2716,0,3.2274,3.229,3.232,3.2357,3.2382,3.2412,3.2442,3.2455,3.2493,3.2515,3.2548,3.257,3.2612,3.2644,3.2679,3.2699,3.2714,3.2717,3.2721,3.2713,3.2702,3.2708,3.2698,3.2716,3.2716,3.2716,3.2716,3.2716,3.2266,3.2285,3.2323,3.2357,3.2384,3.2413,3.2434,3.2462,3.2491,3.253,3.2547,3.2581,3.2615,3.2664,3.2684,3.2711,3.2713,3.2718,3.272,3.272,3.2719,3.27,3.2717,3.2717,3.2717,3.2717,3.2717,0,3.2264,3.2292,3.2322,3.2366,3.2393,3.2409,3.2445,3.2465,3.2495,3.2527,3.2556,3.2595,3.2627,3.2661,3.2695,3.2709,3.2717,3.2717,3.2715,3.272,3.2714,3.2708,3.271,3.271,3.271,3.271,3.271,3.271,3.2266,3.2298,3.232,3.2367,3.2395,3.243,3.2449,3.2476,3.2502,3.2546,3.2574,3.2597,3.263,3.2667,3.2698,3.2707,3.2718,3.2716,3.2726,3.272,3.272,3.272,3.2714,3.2718,3.2718,3.273,3.273,3.273]}]]